This is the latest recevied weather packets stored in our database for station/object W1RCY. If no packets are shown the sender has not sent any weather packets the latest 10 day(s).
| Time | Temp. | Humidity | Pressure | Rain* | Wind** | Luminosity | Snow |
|---|---|---|---|---|---|---|---|
| 1777663901 | 13.33° C | 37% | 1007 hPa | 0 mm | - | 592 W/m² | - |
| 1777663598 | 13.33° C | 41% | 1006.9 hPa | 0 mm | - | 603 W/m² | - |
| 1777663295 | 13.33° C | 41% | 1007 hPa | 0 mm | - | 609 W/m² | - |
| 1777662992 | 13.33° C | 42% | 1007.1 hPa | 0 mm | - | 573 W/m² | - |
| 1777662689 | 13.33° C | 43% | 1007 hPa | 0 mm | - | 618 W/m² | - |
| 1777662386 | 13.33° C | 43% | 1007 hPa | 0 mm | - | 620 W/m² | - |
| 1777662081 | 13.33° C | 42% | 1007.2 hPa | 0 mm | - | 634 W/m² | - |
| 1777661777 | 13.33° C | 45% | 1007.1 hPa | 0 mm | - | 641 W/m² | - |
| 1777661473 | 12.78° C | 45% | 1006.9 hPa | 0 mm | - | 650 W/m² | - |
| 1777661169 | 12.78° C | 45% | 1007.2 hPa | 0 mm | - | 657 W/m² | - |
| 1777660864 | 12.78° C | 45% | 1006.9 hPa | 0 mm | - | 656 W/m² | - |
| 1777660561 | 12.78° C | 48% | 1007 hPa | 0 mm | - | 657 W/m² | - |
| 1777660257 | 12.78° C | 47% | 1006.9 hPa | 0 mm | - | 669 W/m² | - |
| 1777659954 | 12.78° C | 45% | 1007.1 hPa | 0 mm | - | 670 W/m² | - |
| 1777659651 | 12.78° C | 47% | 1007.1 hPa | 0 mm | - | 675 W/m² | - |
| 1777659348 | 12.22° C | 48% | 1007.1 hPa | 0 mm | - | 677 W/m² | - |
| 1777659045 | 12.22° C | 47% | 1007.1 hPa | 0 mm | - | 660 W/m² | - |
| 1777658743 | 12.22° C | 49% | 1006.8 hPa | 0 mm | - | 651 W/m² | - |
| 1777658438 | 12.22° C | 50% | 1007 hPa | 0 mm | - | 672 W/m² | - |
| 1777658135 | 12.22° C | 49% | 1007 hPa | 0 mm | - | 678 W/m² | - |
| 1777657832 | 11.67° C | 50% | 1007.2 hPa | 0 mm | - | 678 W/m² | - |
| 1777657530 | 11.67° C | 53% | 1007.2 hPa | 0 mm | - | 703 W/m² | - |
| 1777657227 | 11.67° C | 51% | 1007 hPa | 0 mm | - | 701 W/m² | - |
| 1777656924 | 11.67° C | 52% | 1007.1 hPa | 0 mm | - | 701 W/m² | - |
| 1777656621 | 11.67° C | 51% | 1006.9 hPa | 0 mm | - | 701 W/m² | - |
* Rain latest hour (hover to see other rain measurements)
** Current wind speed in m/s (hover to see current wind gust speed)